Location: Waco, TX
(31.5480°N, 97.1670°W)
Time: 23:45:16
(UTC-06:00)

ISS - Pass Details

Date: 13 November 2018
Orbit: 401 x 409 km, 51.6° (Epoch: 21 November)

Event Time Altitude Azimuth Distance (km) Brightness Sun altitude
Rises 07:18:56 0° 302° (WNW) 2,319 -0.7 3.9°
Reaches altitude 10° 07:21:14 10° 288° (WNW) 1,458 -1.6 4.3°
Maximum altitude 07:23:57 24° 231° (SW) 874 -2.3 4.9°
Drops below altitude 10° 07:26:41 10° 175° (S) 1,455 -0.5 5.4°
Sets 07:28:59 0° 161° (SSE) 2,312 0.8 5.8°
